Location: Cahas Mountain Overlook
(37.0833°N, 80.1000°W)
Time: 19:02:04
(UTC-04:00)

FO-29 - Visible Passes

Search period start: 24 April 2024 00:00
Search period end: 04 May 2024 00:00
Orbit: 800 x 1320 km, 98.6° (Epoch: 24 April)

Date Brightness Start Highest point End Pass type
(mag) Time Alt. Az. Time Alt. Az. Time Alt. Az.
24 Apr 11.6 01:50:47 10° NE 01:56:38 23° E 01:56:38 23° E visible
24 Apr 10.0 03:34:24 10° N 03:42:05 69° WNW 03:43:07 63° WSW visible
24 Apr 11.8 05:22:24 10° NNW 05:25:46 14° NW 05:29:11 10° W visible
25 Apr 10.5 02:39:28 10° NNE 02:47:04 53° E 02:47:23 53° ESE visible
25 Apr 10.9 04:25:01 10° N 04:31:38 32° WNW 04:33:53 28° W visible
26 Apr 11.7 01:45:51 10° NE 01:51:32 22° E 01:51:40 22° E visible
26 Apr 10.0 03:29:15 10° N 03:37:01 74° WNW 03:38:09 64° SW visible
26 Apr 11.8 05:16:54 10° NNW 05:20:44 15° WNW 05:24:36 10° W visible
27 Apr 10.5 02:34:23 10° NNE 02:41:57 50° E 02:42:25 49° ESE visible
27 Apr 10.9 04:19:47 10° N 04:26:35 35° WNW 04:28:54 29° W visible
28 Apr 11.7 01:40:57 10° NE 01:46:23 20° E 01:46:41 20° E visible
28 Apr 10.0 03:24:06 10° N 03:31:57 78° WNW 03:33:10 66° SW visible
28 Apr 11.7 05:11:30 10° NNW 05:15:43 16° WNW 05:19:38 11° W visible
29 Apr 10.6 02:29:20 10° NNE 02:36:51 46° E 02:37:25 46° ESE visible
29 Apr 10.8 04:14:35 10° N 04:21:32 37° WNW 04:23:54 31° W visible
30 Apr 11.8 01:36:07 10° NE 01:41:12 18° E 01:41:41 18° E visible
30 Apr 9.9 03:19:00 10° N 03:26:53 83° WNW 03:28:09 66° SSW visible
30 Apr 11.7 05:06:08 10° NNW 05:10:41 17° WNW 05:14:38 11° W visible
01 May 10.7 02:24:18 10° NNE 02:31:44 43° E 02:32:24 43° ESE visible
01 May 10.7 04:09:23 10° N 04:16:29 39° WNW 04:18:53 32° WSW visible
02 May 11.9 01:31:18 10° NE 01:36:01 17° E 01:36:39 17° E visible
02 May 9.9 03:13:53 10° NNE 03:21:48 87° WNW 03:23:08 66° SSW visible
02 May 11.6 05:00:49 10° NNW 05:05:40 18° WNW 05:09:37 12° W visible
03 May 10.8 02:19:17 10° NNE 02:26:35 40° E 02:27:22 39° ESE visible
03 May 10.7 04:04:13 10° N 04:11:26 41° WNW 04:13:51 33° WSW visible
